CW4517 Weather Reports


Display with metric or nautical units.
time (UTC)temp
F
wind
direction
speed
MPH
gust
MPH
rain 1hr
in
rain 24hr
in
rain mn
in
humidity
%
barometer
mb
20260831104039 72 189 3.0 8.0 0.00 0.00 0.00 79 1011.1
20260831103313 72 212 3.0 8.0 0.00 0.00 0.00 79 1011.1
20260831103039 72 231 3.0 7.0 0.00 0.00 0.00 79 1011.1
20260831102305 72 248 2.0 6.0 0.00 0.00 0.00 79 1011.1
20260831101755 72 219 2.0 6.0 0.00 0.00 0.00 79 1011.1
20260831101249 72 237 2.0 6.0 0.00 0.00 0.00 79 1011.1
20260831100739 72 205 2.0 4.0 0.00 0.00 0.00 79 1011.1
20260831100234 72 167 2.0 6.0 0.00 0.00 0.00 79 1011.1
20260831095957 73 207 3.0 7.0 0.00 0.00 0.00 79 1011.1
20260831095225 73 232 3.0 7.0 0.00 0.00 0.00 79 1011.1
20260831094937 73 188 3.0 5.0 0.00 0.00 0.00 78 1011.1
20260831094440 73 184 3.0 5.0 0.00 0.00 0.00 78 1011.1
20260831093924 73 209 2.0 7.0 0.00 0.00 0.00 78 1011.1
20260831093201 73 227 2.0 7.0 0.00 0.00 0.00 78 1011.1
20260831092656 73 238 3.0 6.0 0.00 0.00 0.00 78 1011.3
20260831092631 73 263 3.0 6.0 0.00 0.00 0.00 77 1011.3
20260831091640 73 206 3.0 6.0 0.00 0.00 0.00 77 1011.3
20260831091400 74 173 3.0 6.0 0.00 0.00 0.00 78 1011.3
20260831090633 74 227 3.0 7.0 0.00 0.00 0.00 77 1011.3
20260831090122 74 228 3.0 8.0 0.00 0.00 0.00 77 1011.3
20260831085620 74 214 3.0 8.0 0.00 0.00 0.00 77 1011.3
20260831085112 74 230 2.0 8.0 0.00 0.00 0.00 77 1011.3
20260831084607 74 214 1.0 5.0 0.00 0.00 0.00 77 1011.3
20260831084102 74 196 1.0 4.0 0.00 0.00 0.00 78 1011.2
20260831083552 74 238 1.0 4.0 0.00 0.00 0.00 78 1011.2
20260831083050 74 171 1.0 5.0 0.00 0.00 0.00 78 1011.2
20260831082804 74 173 1.0 5.0 0.00 0.00 0.00 78 1011.2
20260831082036 74 107 1.0 4.0 0.00 0.00 0.00 77 1011.2
20260831081530 74 204 2.0 5.0 0.00 0.00 0.00 78 1011.2
20260831081020 74 171 2.0 5.0 0.00 0.00 0.00 78 1011.3
20260831080520 74 250 1.0 7.0 0.00 0.00 0.00 78 1011.3
20260831080014 74 144 1.0 7.0 0.00 0.00 0.00 78 1011.3
20260831075507 74 173 1.0 6.0 0.00 0.00 0.00 79 1011.3
20260831075001 74 176 1.0 6.0 0.00 0.00 0.00 79 1011.3
20260831074451 74 179 1.0 4.0 0.00 0.00 0.00 79 1011.3
20260831074216 74 219 1.0 3.0 0.00 0.00 0.00 80 1011.3
20260831073440 74 217 1.0 3.0 0.00 0.00 0.00 80 1011.3
20260831072939 74 180 1.0 5.0 0.00 0.00 0.00 80 1011.3
20260831072441 74 134 1.0 5.0 0.00 0.00 0.00 80 1011.4
20260831071940 74 133 2.0 5.0 0.00 0.00 0.00 79 1011.4
20260831071440 74 103 2.0 4.0 0.00 0.00 0.00 79 1011.4
20260831070939 74 97 1.0 4.0 0.00 0.00 0.00 78 1011.5
20260831070440 74 125 1.0 4.0 0.00 0.00 0.00 78 1011.5
20260831065942 75 173 1.0 4.0 0.00 0.00 0.00 78 1011.5
20260831065443 75 115 1.0 3.0 0.00 0.00 0.00 78 1011.6
20260831064937 75 140 1.0 3.0 0.00 0.00 0.00 78 1011.6
20260831064425 75 94 1.0 5.0 0.00 0.00 0.00 78 1011.5
20260831063916 75 150 1.0 5.0 0.00 0.00 0.00 78 1011.5
20260831063410 75 109 1.0 3.0 0.00 0.00 0.00 78 1011.5
20260831062902 75 189 1.0 3.0 0.00 0.00 0.00 78 1011.4
20260831062356 75 197 1.0 9.0 0.00 0.00 0.00 78 1011.4
20260831061850 75 189 2.0 9.0 0.00 0.00 0.00 78 1011.4
20260831061346 76 215 3.0 7.0 0.00 0.00 0.00 78 1011.2
20260831060840 76 211 3.0 7.0 0.00 0.00 0.00 78 1011.2
20260831060326 76 186 3.0 6.0 0.00 0.00 0.00 78 1011.2
20260831055826 76 173 3.0 7.0 0.00 0.00 0.00 78 1011.0
20260831055320 76 192 2.0 7.0 0.00 0.00 0.00 78 1011.0
20260831054814 76 180 3.0 8.0 0.00 0.00 0.00 78 1011.0
20260831054308 76 212 3.0 8.0 0.00 0.00 0.00 78 1011.4
20260831053757 76 215 2.0 8.0 0.00 0.00 0.00 78 1011.4
20260831053256 76 236 2.0 8.0 0.00 0.00 0.00 78 1011.4
20260831052753 76 210 2.0 6.0 0.00 0.00 0.00 78 1011.4
20260831052500 76 194 1.0 7.0 0.00 0.00 0.00 77 1011.4
20260831051739 76 182 0.0 7.0 0.00 0.00 0.00 78 1011.4
20260831051233 76 155 1.0 5.0 0.00 0.00 0.00 78 1011.4
20260831050727 76 194 1.0 5.0 0.00 0.00 0.00 78 1011.4
20260831050433 76 194 0.0 4.0 0.00 0.00 0.00 79 1011.4
20260831045717 76 264 1.0 6.0 0.00 0.00 0.00 79 1011.5
20260831045202 76 175 1.0 6.0 0.00 0.00 0.00 79 1011.5
20260831044705 76 184 0.0 6.0 0.00 0.00 0.00 79 1011.5
20260831044416 76 184 0.0 5.0 0.00 0.00 0.00 80 1011.9
20260831043652 76 228 0.0 2.0 0.00 0.00 0.00 81 1011.9
20260831043141 75 187 0.0 4.0 0.00 0.00 0.00 82 1011.9
20260831042636 75 187 1.0 4.0 0.00 0.00 0.00 83 1011.8
20260831042134 75 186 1.0 4.0 0.00 0.00 0.00 83 1011.8
20260831041628 75 206 1.0 3.0 0.00 0.00 0.00 84 1011.8
20260831041122 75 192 1.0 3.0 0.00 0.00 0.00 85 1012.2
20260831040843 75 135 1.0 2.0 0.00 0.00 0.00 85 1012.2
20260831040110 75 123 0.0 2.0 0.00 0.00 0.00 85 1012.2
20260831035604 75 124 0.0 2.0 0.00 0.00 0.00 85 1012.4
20260831035102 75 150 0.0 1.0 0.00 0.00 0.00 86 1012.4
20260831034601 75 186 0.0 2.0 0.00 0.00 0.00 86 1012.4
20260831034101 75 186 0.0 3.0 0.00 0.00 0.00 86 1012.5
20260831033601 75 209 0.0 3.0 0.00 0.00 0.00 86 1012.5
20260831033323 75 207 0.0 2.0 0.00 0.00 0.00 86 1012.5
20260831032559 75 207 0.0 3.0 0.00 0.00 0.00 86 1012.3
20260831032057 75 197 0.0 3.0 0.00 0.00 0.00 86 1012.3
20260831031557 75 122 0.0 3.0 0.00 0.00 0.00 87 1012.3
20260831031058 75 121 1.0 4.0 0.00 0.00 0.00 87 1012.3
20260831030812 75 124 1.0 4.0 0.00 0.00 0.00 87 1012.3
20260831030057 75 194 1.0 4.0 0.00 0.00 0.00 87 1012.3
20260831025553 75 186 0.0 4.0 0.00 0.00 0.00 87 1012.5
20260831025054 75 99 0.0 1.0 0.00 0.00 0.00 87 1012.5
20260831024551 75 172 0.0 0.0 0.00 0.00 0.00 87 1012.5
20260831024049 75 140 0.0 0.0 0.00 0.00 0.00 87 1012.9
20260831023549 75 140 0.0 0.0 0.00 0.00 0.00 86 1012.9
20260831023049 75 122 0.0 0.0 0.00 0.00 0.00 86 1012.9
20260831022550 75 93 0.0 0.0 0.00 0.00 0.00 86 1012.9
20260831022045 75 71 0.0 0.0 0.00 0.00 0.00 85 1012.9
20260831021535 76 211 0.0 0.0 0.00 0.00 0.00 85 1012.9
20260831021519 76 144 0.0 0.0 0.00 0.00 0.00 85 1012.4
20260831020731 76 115 0.0 0.0 0.00 0.00 0.00 85 1012.4
20260831020013 76 137 0.0 0.0 0.00 0.00 0.00 85 1012.4
20260831015738 76 171 0.0 0.0 0.00 0.00 0.00 85 1012.5
20260831015013 76 182 0.0 0.0 0.00 0.00 0.00 85 1012.5
20260831014512 76 182 0.0 0.0 0.00 0.00 0.00 85 1012.5
20260831014014 76 182 0.0 0.0 0.00 0.00 0.00 84 1012.3
20260831013512 76 182 0.0 0.0 0.00 0.00 0.00 84 1012.3
20260831013013 76 153 0.0 0.0 0.00 0.00 0.00 84 1012.3
20260831012513 76 114 0.0 1.0 0.00 0.00 0.00 84 1012.0
20260831012012 76 225 0.0 2.0 0.00 0.00 0.00 84 1012.0
20260831011459 76 225 0.0 2.0 0.00 0.00 0.00 84 1012.0
20260831010959 76 192 1.0 3.0 0.00 0.00 0.00 84 1011.6
20260831010452 76 114 1.0 3.0 0.00 0.00 0.00 84 1011.6
20260831010202 76 142 1.0 4.0 0.00 0.00 0.00 84 1011.8
20260831005441 76 140 1.0 4.0 0.00 0.00 0.00 85 1011.8
20260831004935 76 145 1.0 4.0 0.00 0.00 0.00 85 1011.8
20260831004429 76 133 1.0 3.0 0.00 0.00 0.00 85 1012.4
20260831004139 76 154 2.0 3.0 0.00 0.00 0.00 85 1012.4
20260831003416 76 133 1.0 3.0 0.00 0.00 0.00 85 1012.4
20260831003352 76 109 0.0 1.0 0.00 0.00 0.00 85 1012.4
20260831002404 76 109 0.0 2.0 0.00 0.00 0.00 85 1012.4
20260831001859 76 109 0.0 2.0 0.00 0.00 0.00 85 1012.4
20260831001349 76 109 1.0 4.0 0.00 0.00 0.00 85 1011.9
20260831000847 76 105 1.0 4.0 0.00 0.00 0.00 85 1011.9
20260831000342 76 108 2.0 5.0 0.00 0.00 0.00 85 1011.9
20260830235834 76 147 2.0 6.0 0.00 0.00 0.00 85 1012.2
20260830235328 76 163 1.0 6.0 0.00 0.00 0.00 85 1012.2
20260830234822 76 151 1.0 4.0 0.00 0.00 0.00 85 1012.2
20260830234317 76 144 1.0 3.0 0.00 0.00 0.00 85 1012.5
20260830233806 77 123 1.0 2.0 0.00 0.00 0.00 84 1012.5
20260830233304 77 123 0.0 2.0 0.00 0.00 0.00 84 1012.5
20260830233026 78 122 0.0 2.0 0.00 0.00 0.00 83 1012.8
20260830232251 78 121 0.0 0.0 0.00 0.00 0.00 83 1012.8
20260830231747 78 121 0.0 0.0 0.00 0.00 0.00 82 1012.8
20260830231236 78 121 0.0 0.0 0.00 0.00 0.00 82 1012.9
20260830230734 78 121 0.0 1.0 0.00 0.00 0.00 82 1012.9
20260830230230 78 121 0.0 1.0 0.00 0.00 0.00 81 1012.9
20260830225724 78 121 0.0 0.0 0.00 0.00 0.00 81 1012.9
20260830225441 78 121 0.0 0.0 0.00 0.00 0.00 80 1012.9
20260830224711 78 121 0.0 0.0 0.00 0.00 0.00 80 1012.9
20260830224205 78 121 0.0 0.0 0.00 0.00 0.00 80 1012.5
20260830223654 78 121 0.0 2.0 0.00 0.00 0.00 80 1012.5
20260830223152 78 121 1.0 3.0 0.00 0.00 0.00 80 1012.5
20260830222647 78 121 1.0 3.0 0.00 0.00 0.00 79 1012.4
20260830222140 78 98 1.0 3.0 0.00 0.00 0.00 79 1012.4
20260830221633 79 120 0.0 3.0 0.00 0.00 0.00 80 1012.4
20260830221128 79 102 0.0 0.0 0.00 0.00 0.00 79 1012.5
20260830220618 79 111 0.0 1.0 0.00 0.00 0.00 80 1012.5
20260830220117 79 110 0.0 1.0 0.00 0.00 0.00 79 1012.5
20260830220101 79 92 0.0 0.0 0.00 0.00 0.00 80 1012.9
20260830215118 79 92 0.0 0.0 0.00 0.00 0.00 80 1012.9
20260830214618 79 71 0.0 0.0 0.00 0.00 0.00 79 1012.9
20260830214120 79 71 0.0 0.0 0.00 0.00 0.00 79 1012.9
20260830213617 80 57 0.0 0.0 0.00 0.00 0.00 78 1012.9
20260830213606 80 100 0.0 0.0 0.00 0.00 0.00 78 1012.9
20260830212619 80 246 0.0 1.0 0.00 0.00 0.00 76 1013.0
20260830212113 79 246 0.0 3.0 0.00 0.00 0.00 76 1013.0
20260830211559 79 246 1.0 3.0 0.00 0.00 0.00 75 1013.0
20260830211049 79 253 1.0 4.0 0.00 0.00 0.00 76 1012.9
20260830210537 79 217 1.0 4.0 0.00 0.00 0.00 76 1012.9
20260830210035 79 243 1.0 4.0 0.00 0.00 0.00 76 1012.9
20260830205748 79 239 0.0 4.0 0.00 0.00 0.00 76 1012.9
20260830205513 78 241 0.0 2.0 0.00 0.00 0.00 77 1012.9
20260830204513 78 242 1.0 3.0 0.00 0.00 0.00 78 1012.9
20260830204011 78 242 2.0 4.0 0.00 0.00 0.00 77 1013.0
20260830203505 78 286 2.0 4.0 0.00 0.00 0.00 77 1013.0
20260830202959 78 288 2.0 6.0 0.00 0.00 0.00 78 1013.0
20260830202454 78 215 3.0 7.0 0.00 0.00 0.00 78 1012.8
20260830201943 78 225 2.0 7.0 0.00 0.00 0.00 78 1012.8
20260830201656 78 218 2.0 5.0 0.00 0.00 0.00 79 1012.9
20260830200936 77 202 2.0 6.0 0.00 0.00 0.00 79 1012.9
20260830200430 77 180 2.0 6.0 0.00 0.00 0.00 79 1012.9
20260830195924 77 215 1.0 6.0 0.00 0.00 0.00 79 1012.9
20260830195853 77 238 2.0 6.0 0.00 0.00 0.00 78 1012.9
20260830194911 78 228 3.0 11.0 0.00 0.00 0.00 78 1012.9
20260830194406 78 239 4.0 11.0 0.00 0.00 0.00 76 1012.5
20260830193900 78 222 4.0 10.0 0.00 0.00 0.00 76 1012.5
20260830193353 78 245 4.0 12.0 0.00 0.00 0.00 75 1012.5
20260830192843 79 238 6.0 15.0 0.00 0.00 0.00 75 1012.5
20260830192337 79 211 6.0 15.0 0.00 0.00 0.00 74 1012.5
20260830192051 79 223 5.0 14.0 0.00 0.00 0.00 75 1012.5
20260830191320 79 227 6.0 13.0 0.00 0.00 0.00 75 1012.5
20260830190819 79 213 6.0 13.0 0.00 0.00 0.00 75 1012.5
20260830190313 79 233 5.0 13.0 0.00 0.00 0.00 75 1012.5
20260830185807 79 211 6.0 12.0 0.00 0.00 0.00 75 1012.3
20260830185526 79 200 6.0 12.0 0.00 0.00 0.00 74 1012.3
20260830184752 80 210 7.0 18.0 0.00 0.00 0.00 73 1012.3
20260830184250 80 219 7.0 18.0 0.00 0.00 0.00 73 1011.9
20260830183744 80 223 6.0 18.0 0.00 0.00 0.00 72 1011.9
20260830183236 80 171 7.0 18.0 0.00 0.00 0.00 73 1011.9
20260830183217 79 207 7.0 18.0 0.00 0.00 0.00 74 1012.0
20260830182225 79 207 6.0 14.0 0.00 0.00 0.00 74 1012.0
20260830181720 78 240 6.0 18.0 0.00 0.00 0.00 74 1012.0
20260830181210 78 200 6.0 18.0 0.00 0.00 0.00 74 1012.2
20260830180708 78 210 7.0 20.0 0.00 0.00 0.00 74 1012.2
20260830180201 78 176 7.0 20.0 0.00 0.00 0.00 75 1012.2
20260830175656 77 209 7.0 15.0 0.00 0.00 0.00 76 1012.3
20260830175153 77 217 7.0 18.0 0.00 0.00 0.00 76 1012.3
20260830174652 76 215 6.0 18.0 0.00 0.00 0.00 77 1012.3
20260830174415 76 223 6.0 13.0 0.00 0.00 0.00 78 1012.3
20260830173739 76 240 6.0 18.0 0.00 0.00 0.00 78 1012.3
20260830172654 75 266 6.0 15.0 0.00 0.00 0.00 79 1012.5
20260830172153 75 227 6.0 14.0 0.00 0.00 0.00 79 1012.5
20260830171655 75 221 5.0 14.0 0.00 0.00 0.00 79 1012.5
20260830171643 74 229 5.0 14.0 0.00 0.00 0.00 80 1012.6
20260830170652 74 159 6.0 13.0 0.00 0.00 0.00 80 1012.6
20260830170138 74 228 6.0 15.0 0.00 0.00 0.00 80 1012.6
20260830165628 74 217 6.0 15.0 0.00 0.00 0.00 79 1012.9
20260830165119 74 197 7.0 13.0 0.00 0.00 0.00 79 1012.9
20260830164610 74 227 6.0 13.0 0.00 0.00 0.00 80 1012.9
20260830164327 74 213 6.0 12.0 0.00 0.00 0.00 80 1012.7
20260830163558 74 233 6.0 13.0 0.00 0.00 0.00 82 1012.7
20260830163053 73 237 5.0 13.0 0.00 0.00 0.00 82 1012.7
20260830163024 72 240 5.0 11.0 0.00 0.00 0.00 83 1012.4
20260830162040 72 180 4.0 11.0 0.00 0.00 0.00 83 1012.4
20260830161535 71 250 3.0 9.0 0.00 0.00 0.00 84 1012.4
20260830161027 71 221 3.0 9.0 0.00 0.00 0.00 85 1012.2
20260830161006 71 187 4.0 12.0 0.00 0.00 0.00 84 1012.2
20260830160011 70 219 4.0 11.0 0.00 0.00 0.00 85 1012.2
20260830155509 70 213 3.0 11.0 0.00 0.00 0.00 86 1012.3
20260830155005 70 179 3.0 8.0 0.00 0.00 0.00 87 1012.3
20260830154457 70 227 3.0 7.0 0.00 0.00 0.00 87 1012.3
20260830153951 69 200 3.0 7.0 0.00 0.00 0.00 87 1012.3
20260830153440 69 192 3.0 11.0 0.00 0.00 0.00 88 1012.3
20260830152939 69 210 3.0 11.0 0.00 0.00 0.00 88 1012.7
20260830152918 69 175 3.0 11.0 0.00 0.00 0.00 88 1012.7
20260830151927 69 150 3.0 11.0 0.00 0.00 0.00 89 1012.7
20260830151422 69 227 3.0 9.0 0.00 0.00 0.00 89 1012.8
20260830150916 68 209 2.0 9.0 0.00 0.00 0.00 90 1012.8
20260830150628 68 207 2.0 8.0 0.00 0.00 0.00 90 1012.8
20260830145900 68 192 2.0 7.0 0.00 0.00 0.00 90 1012.7
20260830145400 68 150 2.0 7.0 0.00 0.00 0.00 90 1012.7
20260830145128 67 192 2.0 6.0 0.00 0.00 0.00 90 1012.7
20260830144400 67 159 3.0 9.0 0.00 0.00 0.00 90 1012.9
20260830143900 67 128 3.0 11.0 0.00 0.00 0.00 90 1012.9
20260830143400 67 189 3.0 11.0 0.00 0.00 0.00 90 1012.9
20260830142900 67 192 3.0 9.0 0.00 0.00 0.00 90 1012.9
20260830142400 67 163 2.0 9.0 0.00 0.00 0.00 90 1012.9
20260830141859 67 194 2.0 7.0 0.00 0.00 0.00 90 1012.9
20260830141400 67 119 2.0 5.0 0.00 0.00 0.00 90 1013.6
20260830140858 67 143 2.0 5.0 0.00 0.00 0.00 90 1013.6
20260830140359 67 142 2.0 6.0 0.00 0.00 0.00 90 1013.6
20260830135858 67 180 2.0 6.0 0.00 0.00 0.00 90 1013.9
20260830135356 67 204 2.0 6.0 0.00 0.00 0.00 90 1013.9
20260830134856 67 187 2.0 6.0 0.00 0.00 0.00 90 1013.9
20260830134356 67 159 2.0 6.0 0.00 0.00 0.00 90 1014.2
20260830134342 67 238 1.0 6.0 0.00 0.00 0.00 90 1014.2
20260830133353 67 166 1.0 4.0 0.00 0.00 0.00 90 1014.2
20260830133110 67 174 2.0 5.0 0.00 0.00 0.00 90 1014.5
20260830132337 67 203 1.0 4.0 0.00 0.00 0.00 90 1014.5
20260830131838 67 145 1.0 3.0 0.00 0.00 0.00 89 1014.5
20260830131337 67 223 1.0 4.0 0.00 0.00 0.00 89 1014.4
20260830130838 67 198 1.0 4.0 0.00 0.00 0.00 89 1014.4
20260830130337 67 232 1.0 4.0 0.00 0.00 0.00 89 1014.4
20260830125837 67 225 1.0 4.0 0.00 0.00 0.00 89 1014.1
20260830125338 67 234 1.0 5.0 0.00 0.00 0.00 89 1014.1
20260830124840 67 161 2.0 5.0 0.00 0.00 0.00 89 1014.1
20260830124341 67 231 2.0 5.0 0.00 0.00 0.00 89 1014.0
20260830123837 67 217 2.0 5.0 0.00 0.00 0.00 89 1014.0
20260830123327 68 227 2.0 5.0 0.00 0.00 0.00 89 1014.0
20260830123048 68 235 2.0 6.0 0.00 0.00 0.00 88 1014.0
20260830122317 68 225 2.0 6.0 0.00 0.00 0.00 88 1014.0
20260830121812 68 202 3.0 10.0 0.00 0.00 0.00 88 1014.0
20260830121306 68 219 3.0 10.0 0.00 0.00 0.00 88 1013.3
20260830120840 67 222 2.0 7.0 0.00 0.00 0.00 88 1013.3
20260830115750 67 240 3.0 7.0 0.00 0.00 0.00 88 1013.0
20260830115718 67 207 3.0 7.0 0.00 0.00 0.00 89 1013.0
20260830114738 67 232 3.0 6.0 0.00 0.00 0.00 89 1013.0
20260830114454 67 221 3.0 6.0 0.00 0.00 0.00 88 1012.7
20260830113726 67 219 3.0 6.0 0.00 0.00 0.00 88 1012.7
20260830113219 67 233 3.0 6.0 0.00 0.00 0.00 88 1012.7
20260830112712 68 211 3.0 8.0 0.00 0.00 0.00 87 1012.5
20260830112208 68 178 4.0 9.0 0.00 0.00 0.00 86 1012.5
20260830111701 69 206 4.0 13.0 0.00 0.00 0.00 84 1012.5
20260830111155 70 209 4.0 13.0 0.00 0.00 0.00 82 1012.4
20260830110642 70 231 3.0 10.0 0.00 0.00 0.00 81 1012.4
20260830110135 71 214 3.0 9.0 0.00 0.00 0.00 79 1012.4
20260830105349 70 161 2.0 7.0 0.00 0.00 0.00 79 1012.4
20260830104126 70 245 2.0 7.0 0.00 0.00 0.00 79 1012.3